Torna al catalogo

SL-14 DEB

AttivoPO
NORAD 26009·DEBRIS·🇷🇺 Russia

Lanciato Sep 28, 1991 da Plesetsk Cosmodrome

Loading…

Prossimi Passaggi (prossime 24 ore)

TLE

AggiornatoSource: Space-Track

Epoca: Sep 14, 2026, 08:56 UTC

1 26009U 91068U   26257.37249648  .00000334  00000-0  13423-2 0  9991
2 26009  82.4911  39.6748 0115604  13.4931  14.3836 12.82080201256146

Traccia SL-14 DEB in tempo reale con AllMySat

Download on the App Store